Location: *
(38.4303°S, 157.0822°W)
Time: 13:23:26
(UTC+00:00)

Cosmos 1626 Rocket - Pass Details

Date: 21 May 2024
Orbit: 600 x 627 km, 82.5° (Epoch: 14 June)

Event Time Altitude Azimuth Distance (km) Brightness Sun altitude
Rises 16:13:34 0° 185° (S) 2,896 6.8 -14.7°
Reaches altitude 10° 16:15:49 10° 182° (S) 1,987 6.0 -14.2°
Maximum altitude 16:20:12 70° 98° (E) 660 3.9 -13.4°
Drops below altitude 10° 16:24:34 10° 14° (NNE) 1,974 6.6 -12.6°
Sets 16:26:47 0° 11° (NNE) 2,875 7.4 -12.2°
